CET,Max TemperatureF,Mean TemperatureF,Min TemperatureF,Max Dew PointF,MeanDew PointF,Min DewpointF,Max Humidity, Mean Humidity, Min Humidity, Max Sea Level PressureIn, Mean Sea Level PressureIn, Min Sea Level PressureIn, Max VisibilityMiles, Mean VisibilityMiles, Min VisibilityMiles, Max Wind SpeedMPH, Mean Wind SpeedMPH, Max Gust SpeedMPH,PrecipitationIn, CloudCover, Events, WindDirDegrees
2011-11-1,60,55,50,55,52,48,100,93,77,29.92,29.87,29.83,6,5,2,14,10,,0.00,3,Rain,176
2011-11-2,57,52,48,54,51,48,100,95,82,29.92,29.83,29.65,6,4,0,14,8,,0.00,3,Fog-Rain,151
2011-11-3,60,56,51,57,53,50,94,86,77,29.62,29.53,29.44,6,6,6,15,12,,0.00,1,,140
2011-11-4,64,60,55,54,51,48,94,76,63,29.65,29.52,29.39,6,6,6,24,15,33,0.00,1,,149
2011-11-5,64,56,48,54,52,48,100,90,63,29.83,29.69,29.62,6,6,3,9,5,,0.00,1,Fog-Rain,72
2011-11-6,55,52,48,52,50,48,100,90,82,30.12,30.01,29.83,4,3,2,16,8,23,0.00,6,Fog,3
2011-11-7,51,50,50,50,47,45,100,90,82,30.15,30.10,30.06,3,2,2,20,15,,0.00,8,,58
2011-11-8,51,48,44,46,45,45,100,88,82,30.06,30.04,30.01,3,2,2,12,10,,0.00,5,,98
2011-11-9,55,48,42,52,47,41,100,95,87,30.15,30.10,30.04,6,3,2,9,6,,0.00,2,Fog,119
2011-11-10,51,46,41,48,44,41,100,96,87,30.18,30.16,30.15,5,3,1,14,7,,0.00,7,Fog,87
2011-11-11,50,46,41,45,41,37,100,86,76,30.21,30.15,30.12,6,5,3,18,13,24,0.00,7,,121
2011-11-12,50,44,39,45,40,36,100,86,76,30.48,30.35,30.21,6,5,4,10,8,,0.00,,,126
2011-11-13,50,42,35,43,40,36,100,91,71,30.51,30.45,30.39,6,3,0,10,6,,0.00,7,Fog,86
2011-11-14,46,40,33,39,36,34,100,94,76,30.39,30.29,30.21,6,2,0,10,7,,0.00,6,Fog,84
2011-11-15,39,36,33,36,34,32,100,98,87,30.21,30.17,30.12,4,2,0,12,9,,0.00,4,Fog,69
2011-11-16,44,37,30,37,32,28,100,87,71,30.15,30.12,30.09,6,4,2,10,7,,0.00,1,,100
2011-11-17,44,38,32,45,38,30,100,99,93,30.18,30.14,30.09,5,1,0,10,7,,0.00,7,Fog,167
2011-11-18,46,42,39,46,44,39,100,100,93,30.18,30.15,30.12,3,1,0,10,7,,0.00,5,Fog,162
2011-11-19,50,42,32,46,39,32,100,98,87,30.12,30.10,30.06,6,3,0,6,3,,0.00,2,Fog,96
2011-11-20,44,38,33,45,39,34,100,100,93,30.15,30.12,30.09,1,0,0,6,2,,0.00,7,Fog,235
2011-11-21,37,36,35,37,36,36,100,100,100,30.09,30.04,30.01,0,0,0,6,4,,0.00,,Fog,94
2011-11-22,48,40,33,46,39,34,100,97,87,30.15,30.08,30.04,6,2,0,6,3,,0.00,3,Fog-Rain,116
2011-11-23,53,48,42,52,46,43,100,96,82,30.39,30.28,30.15,6,3,0,10,4,,0.00,4,Fog-Rain,206
2011-11-24,51,46,42,48,46,43,100,95,87,30.42,30.37,30.27,6,4,2,20,10,,0.00,3,,196
2011-11-25,53,50,46,50,45,37,100,84,62,30.30,30.20,30.15,6,5,2,21,16,,0.00,4,Rain,235
2011-11-26,53,48,42,48,44,37,94,83,66,30.33,30.24,30.06,6,6,6,24,16,,0.00,3,Rain,233
2011-11-27,57,52,46,52,44,39,94,79,66,30.30,30.05,29.89,6,6,2,36,22,48,0.00,3,Rain,251
2011-11-28,48,42,35,43,39,36,100,90,76,30.33,30.25,30.09,6,6,4,15,9,,0.00,2,,194
2011-11-29,50,46,42,48,43,41,100,92,81,30.09,29.92,29.80,6,5,2,25,16,29,0.00,5,Rain,184
2011-11-30,51,46,42,45,41,37,93,82,71,30.24,30.14,29.92,6,6,6,17,14,,0.00,1,,212